AO-07 1 07530U 74089B 24172.59065442 -.00000034 00000-0 77715-4 0 9993 2 07530 101.9775 167.2706 0012634 78.1159 35.9502 12.53676333269463 UO-11 1 14781U 84021B 24172.52213607 .00001659 00000-0 19218-3 0 9993 2 14781 97.7048 141.6931 0009678 69.9641 290.2616 14.86748895148984 AO-16 1 20439U 90005D 24172.62451782 .00000204 00000-0 91037-4 0 9993 2 20439 98.8990 177.8456 0010342 196.0967 276.9205 14.33393828797827 LO-19 1 20442U 90005G 24172.50411275 .00000208 00000-0 92040-4 0 9996 2 20442 98.8821 162.8584 0011806 170.5370 189.6038 14.33554584798251 AO-27 1 22825U 93061C 24172.54533985 .00000164 00000-0 80407-4 0 9990 2 22825 98.7881 225.3558 0009487 72.2111 288.0106 14.30508066603090 IO-26 1 22826U 93061D 24172.59292904 .00000187 00000-0 88665-4 0 9998 2 22826 98.7827 225.2676 0009865 58.5314 301.6831 14.30890731603385 FO-29 1 24278U 96046B 24172.52065254 .00000011 00000-0 46227-4 0 9990 2 24278 98.5806 106.7400 0350109 179.4588 180.7000 13.53190592374883 NOAA-15 1 25338U 98030A 24172.60319738 .00000289 00000-0 13759-3 0 9991 2 25338 98.5679 199.6587 0009395 320.1387 39.9102 14.26607185357674 GO-32 1 25397U 98043D 24172.39909076 .00000105 00000-0 65666-4 0 9998 2 25397 98.9217 139.1697 0002073 121.7397 238.3983 14.24058208347871 ISS 1 25544U 98067A 24172.48791663 .00015904 00000-0 29004-3 0 9997 2 25544 51.6399 298.9350 0010535 347.1139 12.9579 15.49560317459061 NO-44 1 26931U 01043C 24172.56085972 .00000241 00000-0 12242-3 0 9998 2 26931 67.0519 322.8371 0007154 278.9911 81.0381 14.31256027186435 SO-50 1 27607U 02058C 24172.44596294 .00001157 00000-0 17421-3 0 9998 2 27607 64.5528 211.5315 0026509 111.1162 249.2779 14.79031792156800 CO-55 1 27844U 03031E 24172.60555588 .00000436 00000-0 21174-3 0 9991 2 27844 98.6763 179.5869 0010738 130.1579 230.0541 14.23281666 88275 CO-57 1 27848U 03031J 24171.55645032 .00000367 00000-0 18327-3 0 9991 2 27848 98.6793 178.7960 0010290 147.7307 212.4503 14.22719524 87876 RS-22 1 27939U 03042A 24172.61696844 .00001445 00000-0 24930-3 0 9994 2 27939 98.2912 328.8707 0012905 53.6616 12.1074 14.69991749108656 NOAA-18 1 28654U 05018A 24172.53565195 .00000237 00000-0 15023-3 0 9990 2 28654 98.8744 249.4727 0015034 57.1129 303.1488 14.13234586983644 CO-58 1 28895U 05043F 24172.30829066 .00001701 00000-0 30675-3 0 9997 2 28895 98.2017 308.1392 0015218 352.1629 7.9335 14.67753447994919 CO-65 1 32785U 08021C 24172.49293546 .00004355 00000-0 38494-3 0 9992 2 32785 97.7537 137.7921 0009984 321.6290 38.4221 14.96815051875974 AAUSAT2 1 32788U 08021F 24172.40632382 .00016316 00000-0 81168-3 0 9997 2 32788 97.5933 152.6552 0007257 141.1128 219.0628 15.17674516878814 CO-66 1 32791U 08021J 24172.39427379 .00007521 00000-0 54903-3 0 9992 2 32791 97.6904 143.5448 0003483 308.9227 51.1688 15.03964873877004 RS-30 1 32953U 08025A 24172.53244012 .00000021 00000-0 76669-4 0 9995 2 32953 82.5031 87.4062 0020561 96.0498 264.2925 12.43142628729405 PRISM 1 33493U 09002B 24172.60920354 .00017954 00000-0 84412-3 0 9996 2 33493 98.2045 220.5271 0011759 228.5286 131.4938 15.19596177839568 NOAA-19 1 33591U 09005A 24172.55829773 .00000226 00000-0 14553-3 0 9998 2 33591 99.0468 228.3931 0012737 283.4950 76.4802 14.13029984791845 SRMSAT 1 37841U 11058D 24172.22261534 .00000438 00000-0 94736-4 0 9997 2 37841 19.9707 138.4209 0011984 127.7575 262.1590 14.11128354654990 HRBE 1 37855U 11061F 24172.46764042 .00709423 22771-3 15077-2 0 9995 2 37855 101.6798 2.6137 0027954 297.8912 61.9518 15.97938773693586 RS-40 1 38735U 12041C 24172.55938005 .00000044 00000-0 24424-3 0 9992 2 38735 82.4750 167.7816 0016602 207.5067 152.5135 12.42610540539590 ZACUBE-1 1 39417U 13066B 24172.61352775 .00003942 00000-0 41164-3 0 9999 2 39417 97.7339 128.5055 0051636 147.4581 212.9838 14.89283053572090 Delfi-N3xt 1 39428U 13066N 24172.31470601 .00006465 00000-0 82280-3 0 9994 2 39428 97.8393 90.5649 0102897 78.7540 282.5215 14.78192659566552 GOMX-1 1 39430U 13066Q 24172.60300761 .00001666 00000-0 28372-3 0 9998 2 39430 97.7323 46.7808 0138557 241.7599 116.9560 14.64212885563363 LO-74 1 39440U 13066AA 24172.61695947 .00003037 00000-0 36170-3 0 9992 2 39440 97.8132 116.2126 0067902 262.8602 96.4888 14.83441311568845 AO-73 1 39444U 13066AE 24172.43193622 .00005479 00000-0 53109-3 0 9992 2 39444 97.7192 131.4592 0049699 128.8599 231.7071 14.92157628570597 SPROUT 1 39770U 14029E 24172.55545863 .00133418 00000-0 24003-2 0 9990 2 39770 98.0070 325.5226 0007184 216.8140 143.2617 15.49319097548176 DTUSAT-2 1 40030U 14033W 24172.35557994 .00005938 00000-0 50118-3 0 9994 2 40030 98.0082 124.8785 0011669 133.1715 227.0484 14.98473939543179 EO-80 1 40032U 14033Y 24172.39096842 .00004775 00000-0 40384-3 0 9992 2 40032 98.0054 124.9265 0010298 140.4191 219.7784 14.98509462543150 XW-2C 1 40906U 15049H 24172.55938229 .00023435 00000-0 53551-3 0 9996 2 40906 97.4769 189.4563 0005486 287.0514 73.0132 15.42836849484999 XW-2D 1 40907U 15049J 24172.62624690 .00037178 00000-0 65187-3 0 9996 2 40907 97.4706 192.0750 0004180 256.6791 103.3994 15.50471518485236 LILACSAT-2 1 40908U 15049K 24172.60318097 .00007617 00000-0 29448-3 0 9991 2 40908 97.5226 181.3358 0011337 347.4705 12.6250 15.26461554484010 XW-2B 1 40911U 15049N 24172.58973382 .00037480 00000-0 67553-3 0 9996 2 40911 97.4677 192.1291 0003964 260.8655 99.2148 15.49686362485095 IO-86 1 40931U 15052B 24172.25233446 .00001255 00000-0 82470-4 0 9993 2 40931 6.0011 330.8301 0012371 127.0396 233.0864 14.77886257471910 ChubuSat-2 1 41338U 16012B 24172.59015593 .00004656 00000-0 28614-3 0 9997 2 41338 31.0022 8.9119 0011332 272.3095 87.6245 15.08374676458113 ChubuSat-3 1 41339U 16012C 24172.53459860 .00004318 00000-0 26926-3 0 9990 2 41339 31.0092 7.7699 0011396 276.1542 83.7797 15.07791558457995 Horyu-4 1 41340U 16012D 24172.49536101 .00010045 00000-0 49592-3 0 9999 2 41340 31.0035 314.0454 0010154 9.2055 350.8770 15.16545314458652 Lapan A3 1 41603U 16040E 24172.58765432 .00003393 00000-0 13714-3 0 9998 2 41603 97.1410 186.1531 0013975 90.3900 269.8940 15.25299117443741 Pratham 1 41783U 16059A 24172.61448599 .00001020 00000-0 19789-3 0 9996 2 41783 97.8358 191.7902 0032734 12.5429 347.6582 14.64917599413048 CAS-2T 1 41847U 16066G 24172.57096739 .00002305 00000-0 34336-3 0 9997 2 41847 98.4606 243.8455 0354419 167.0171 194.0444 14.41283111399989 CAS-4B 1 42759U 17034B 24172.57557542 .00011933 00000-0 43140-3 0 9990 2 42759 43.0149 207.4072 0011806 5.1613 354.9359 15.28360757387925 CAS-4A 1 42761U 17034D 24172.57664287 .00011812 00000-0 42593-3 0 9995 2 42761 43.0186 205.7470 0010560 15.7421 344.3758 15.28465887387928 Aalto 1 1 42775U 17036L 24172.59883582 .00086172 00000-0 74080-3 0 9992 2 42775 97.1011 202.2764 0007575 166.1172 194.0300 15.69037547389641 URSA MAIOR 1 42776U 17036M 24172.59070536 .00615927 17586-3 10995-2 0 9990 2 42776 97.0935 207.1454 0009446 199.0865 161.0062 16.01719582389955 Max Valier Sat 1 42778U 17036P 24172.57999950 .00658434 20538-3 11248-2 0 9993 2 42778 97.0742 211.1971 0006397 193.7184 166.3923 16.02532258390139 D-SAT 1 42794U 17036AF 24172.53497870 .00004579 00000-0 32047-3 0 9996 2 42794 97.4827 154.3098 0111482 136.6149 224.3918 15.00774686381221 TechnoSat 1 42829U 17042E 24172.52534282 .00003757 00000-0 33340-3 0 9994 2 42829 97.3840 353.4075 0014084 66.9404 293.3302 14.96660970377671 AO-91 1 43017U 17073E 24172.60569812 .00006661 00000-0 41626-3 0 9997 2 43017 97.5781 47.9762 0208198 282.3896 75.4094 14.93522005356177 TianYi 2 1 43155U 18008A 24172.58206930 .00103376 00000-0 11547-2 0 9994 2 43155 97.2344 226.6600 0004774 98.3336 261.8464 15.62417208355432 Zhou Enlai 1 43156U 18008B 24172.56034063 .00287712 00000-0 15560-2 0 9995 2 43156 97.2337 228.8508 0003206 191.7752 168.3441 15.79311556355483 TianYi 6 1 43158U 18008D 24172.55876216 .00048314 00000-0 91922-3 0 9990 2 43158 97.2545 221.1659 0007364 96.5508 263.6582 15.48056705354997 S-Net D 1 43186U 18014G 24172.31186030 .00003822 00000-0 27607-3 0 9994 2 43186 97.5921 74.0984 0010522 8.7217 351.4190 15.04630702348976 S-Net B 1 43187U 18014H 24172.44714635 .00003899 00000-0 28152-3 0 9997 2 43187 97.5927 74.1811 0011125 2.9414 357.1876 15.04625832348992 S-Net A 1 43188U 18014J 24172.57902232 .00004121 00000-0 29725-3 0 9990 2 43188 97.5932 74.4237 0011017 3.1418 356.9875 15.04635593349016 S-Net C 1 43189U 18014K 24172.44927137 .00004230 00000-0 30492-3 0 9992 2 43189 97.5952 74.2444 0012426 354.6557 5.4534 15.04629569347540 Ten-Koh 1 43677U 18084G 24172.48546900 .00002600 00000-0 23657-3 0 9994 2 43677 98.0622 326.1131 0013991 10.6094 349.5419 14.96065701307213 PO-101 1 43678U 18084H 24172.55344307 .00001284 00000-0 12206-3 0 9995 2 43678 98.0718 330.6398 0009554 27.2669 332.9051 14.95322552307427 QO-100 1 43700U 18090A 24172.59535304 .00000165 00000-0 00000-0 0 9994 2 43700 0.0176 20.3843 0002035 100.2988 28.7348 1.00271332 20393 MinXSS-2 1 43758U 18099A 24172.41605356 .00007219 00000-0 45746-3 0 9998 2 43758 97.5541 234.7245 0015082 308.7276 51.2604 15.09150532303270 AO-95 1 43770U 18099N 24172.09591003 .00005824 00000-0 40416-3 0 9998 2 43770 97.5463 229.8784 0013170 359.7652 0.3566 15.05890058303003 RANGE-B 1 43772U 18099Q 24172.57160483 .00009600 00000-0 59353-3 0 9993 2 43772 97.5247 233.8292 0004151 245.9753 114.1042 15.10046109303235 RANGE-A 1 43773U 18099R 24172.56834452 .00004925 00000-0 37541-3 0 9997 2 43773 97.4998 225.6941 0013016 322.3693 37.6621 15.02419488302945 MOVE-II 1 43780U 18099Y 24172.45788910 .00015351 00000-0 80236-3 0 9994 2 43780 97.5218 235.4142 0004956 331.5035 28.5926 15.15962083303425 SNUSat 2 1 43782U 18099AA 24172.44444787 .00006115 00000-0 43410-3 0 9997 2 43782 97.5131 229.3538 0013433 291.8616 68.1182 15.05017448303064 SnugLite 1 43784U 18099AC 24172.39330763 .00005325 00000-0 36741-3 0 9992 2 43784 97.4945 228.6437 0003004 306.1954 53.8995 15.06199012303125 ITASat 1 1 43786U 18099AE 24172.11969043 .00004831 00000-0 34989-3 0 9996 2 43786 97.5089 229.3001 0016629 345.9428 14.1333 15.04323770303018 EAGLET 1 1 43790U 18099AJ 24172.56890876 .00004189 00000-0 31614-3 0 9995 2 43790 97.5299 230.2202 0012607 321.1026 38.9292 15.02894791302787 ESEO 1 43792U 18099AL 24172.60809386 .00001791 00000-0 14973-3 0 9993 2 43792 97.5147 227.1071 0011917 314.4195 45.6052 14.99677389302714 CSIM 1 43793U 18099AM 24172.18238043 .00013451 00000-0 70681-3 0 9997 2 43793 97.5299 236.8671 0010807 300.8327 59.1842 15.15764737303237 JO-97 1 43803U 18099AX 24172.41937806 .00006537 00000-0 43472-3 0 9993 2 43803 97.5205 231.0167 0008046 292.8590 67.1788 15.07471899303184 Suomi 100 1 43804U 18099AY 24172.60506306 .00005533 00000-0 37574-3 0 9993 2 43804 97.5271 230.9974 0014131 290.4814 69.4896 15.06705649303195 ISAT 1 43879U 18111D 24172.58938889 .00009000 00000-0 54730-3 0 9998 2 43879 97.6203 78.2754 0012571 358.3490 1.7696 15.10614946299939 UWE-4 1 43880U 18111E 24172.24622590 .00007349 00000-0 45920-3 0 9997 2 43880 97.6119 77.9455 0016535 5.8615 354.2804 15.09645280299893 Sparrow 1 43881U 18111F 24172.49312882 .00010503 00000-0 62943-3 0 9995 2 43881 97.6284 80.0871 0011285 38.9400 321.2640 15.11115843299982 AISat 1 1 44104U 19018AC 24172.54144746 .00630547 21487-3 64652-3 0 9999 2 44104 97.3500 284.6789 0012553 280.3229 79.6640 16.10634345293420 Prox-1 1 44339U 19036A 24172.44248429 .00006573 00000-0 11094-2 0 9993 2 44339 23.9982 204.4893 0008802 41.5250 318.5912 14.66934050265722 SONATE 1 44400U 19038Q 24172.52944796 .00017279 00000-0 51918-3 0 9998 2 44400 97.7112 166.7730 0018356 95.3614 264.9722 15.34321087274595 Taurus 1 1 44530U 19059C 24172.60636673 .00005095 00000-0 11815-2 0 9990 2 44530 98.5764 292.8629 0011530 50.9732 309.2489 14.55437685252261 Duchifat 3 1 44854U 19089C 24172.28561826 .00011841 00000-0 59749-3 0 9998 2 44854 36.9584 30.2041 0004085 109.5311 250.5878 15.16552821248745 TO-108 1 44881U 19093C 24172.54757715 .00001107 00000-0 14002-3 0 9993 2 44881 97.8284 249.2650 0013270 315.7962 44.2191 14.83768530243543 FloripaSat 1 1 44885U 19093G 24172.57304368 .00004876 00000-0 50687-3 0 9997 2 44885 97.8414 255.1203 0011170 306.0850 53.9333 14.90313606243877 RS-44 1 44909U 19096E 24172.31762621 .00000008 00000-0 -16977-4 0 9998 2 44909 82.5212 102.6974 0218490 44.0948 317.7345 12.79730753209375 BY70-2 1 45857U 20042B 24172.59730986 .00117485 00000-0 36782-2 0 9994 2 45857 97.9075 266.3623 0012123 215.5294 144.5140 15.32560504215078 UPMSat 2 1 46276U 20061E 24172.42507944 .00012608 00000-0 38392-3 0 9990 2 46276 97.2978 238.6342 0002807 115.5679 244.5854 15.34122822210676 AmicalSat 1 46287U 20061R 24172.42949222 .00024499 00000-0 66492-3 0 9994 2 46287 97.3495 239.6911 0002865 177.2525 182.8736 15.37592164210064 SALSAT 1 46495U 20068K 24172.44810114 .00005600 00000-0 31871-3 0 9997 2 46495 97.8160 131.8214 0012179 307.2632 52.7487 15.13215070204806 UVSQ-SAT 1 47438U 21006AB 24172.39842859 .00045186 00000-0 84700-3 0 9995 2 47438 97.3260 232.9267 0007730 188.2454 171.8671 15.48497678189238 YUSAT 1 1 47439U 21006AC 24172.44015354 .00173855 00000-0 12711-2 0 9991 2 47439 97.3190 237.9115 0008393 195.8578 164.2424 15.72660290189562 SOMP 2b 1 47445U 21006AJ 24172.60010697 .00035992 00000-0 75294-3 0 9996 2 47445 97.3227 231.4109 0007331 193.9866 166.1181 15.45357096189188 IDEASSat 1 47458U 21006AX 24172.12800973 .00031661 00000-0 72960-3 0 9997 2 47458 97.3336 231.4558 0007120 198.1313 161.9681 15.42511647189045 CubeSX-Sirius-HSE 1 47951U 21022V 24172.58456048 .00016218 00000-0 63386-3 0 9996 2 47951 97.4611 70.9404 0016461 122.1725 238.1112 15.25819457179099 CubeSX-HSE 1 47952U 21022W 24172.60329064 .00016550 00000-0 64453-3 0 9992 2 47952 97.4610 71.0511 0016366 121.3912 238.8929 15.25935113179106 KSU-Cubesat 1 47954U 21022Y 24172.45406824 .00019820 00000-0 70478-3 0 9994 2 47954 97.4619 72.2362 0015549 117.3115 242.9710 15.28911762178881 GRBAlpha 1 47959U 21022AD 24172.56739735 .00015549 00000-0 60409-3 0 9998 2 47959 97.4613 71.1660 0016240 121.4528 238.8300 15.26031317177922 Orbicraft-Zorkiy 1 47960U 21022AE 24172.62224006 .00018353 00000-0 67151-3 0 9994 2 47960 97.4656 72.5123 0015524 118.6803 241.5999 15.27992084178685 STECCO 1 47962U 21022AG 24172.56358965 .00123843 00000-0 14508-2 0 9999 2 47962 97.4593 82.3295 0010699 98.8684 261.3785 15.61054842178659 MO-110 1 47964U 21022AJ 24172.48160254 .00209714 00000-0 17514-2 0 9996 2 47964 97.4600 84.1661 0011416 102.8421 257.4116 15.69321648178754 TUBIN 1 48900U 21059X 24172.58804983 .00012792 00000-0 43818-3 0 9997 2 48900 97.6458 317.3214 0007666 79.9588 280.2517 15.30325459165446 LEDSAT 1 49069U 21073D 24172.46724666 .00012537 00000-0 50369-3 0 9992 2 49069 97.4381 243.5759 0017744 270.0581 89.8623 15.24936824156959 CUTE 1 49263U 21088D 24172.16048743 .00013191 00000-0 61569-3 0 9997 2 49263 97.4977 238.1319 0015357 76.0614 284.2328 15.19858710150090 TeikyoSat 4 1 49396U 21102B 24172.57072973 .00001482 00000-0 11025-3 0 9990 2 49396 97.4592 217.4323 0011492 263.2061 96.7858 15.04396505143265 Z-Sat 1 49399U 21102E 24172.58919524 .00003560 00000-0 23150-3 0 9997 2 49399 97.4313 219.0075 0018815 243.2615 116.6689 15.08478138143508 KOSEN 1 1 49402U 21102H 24172.55705747 .00005809 00000-0 34503-3 0 9991 2 49402 97.4231 220.4275 0017955 225.9015 134.0739 15.11544847143656 HO-113 1 50466U 21131B 24172.53134941 .00000692 00000-0 23544-3 0 9993 2 50466 98.5284 257.5846 0005394 113.2966 246.8790 14.39669935130482 Tevel-3 1 50988U 22002E 24172.57140233 .00170478 00000-0 14089-2 0 9998 2 50988 97.3756 248.6260 0003826 240.0499 120.0384 15.69763225135580 Tevel-8 1 50989U 22002F 24172.48651967 .00165972 00000-0 13881-2 0 9992 2 50989 97.3779 248.6288 0003650 239.7721 120.3180 15.69487371135564 Tevel-5 1 50998U 22002Q 24172.47100149 .00261773 00000-0 14719-2 0 9999 2 50998 97.3734 250.0571 0006495 244.2908 115.7689 15.78490774135670 Tevel-6 1 50999U 22002R 24172.48318092 .00260597 00000-0 14954-2 0 9993 2 50999 97.3723 250.0181 0006226 244.2115 115.8510 15.78038440135670 Tevel-1 1 51013U 22002AF 24172.47660567 .00157710 00000-0 13244-2 0 9990 2 51013 97.3750 248.3735 0004085 241.6096 118.4754 15.69411107135565 IRIS-A 1 51044U 22002BN 24172.45159480 .00015913 00000-0 52098-3 0 9998 2 51044 97.3851 238.9476 0005881 36.9392 323.2254 15.31742034134922 Tevel-7 1 51062U 22002CG 24172.47111475 .00164455 00000-0 13605-2 0 9998 2 51062 97.3769 248.5915 0004175 240.5793 119.5052 15.69755168135564 Tevel-4 1 51063U 22002CH 24172.45615163 .00158961 00000-0 13581-2 0 9998 2 51063 97.3773 248.4514 0004037 243.4707 116.6140 15.68986700135550 Tevel-2 1 51069U 22002CP 24172.56846859 .00168063 00000-0 13870-2 0 9999 2 51069 97.3751 248.5912 0003944 240.3391 119.7479 15.69803976135582 OreSat0 1 52017U 22026K 24172.55701368 .00058617 00000-0 89556-3 0 9991 2 52017 97.4928 186.9921 0013052 187.4525 172.6537 15.54132494126238 Planetum 1 1 52738U 22057G 24172.31621731 .00033720 00000-0 79748-3 0 9994 2 52738 97.5663 298.5718 0005928 146.7614 213.4006 15.41727600115057 Foresail-1 1 52766U 22057AL 24172.39115332 .00015433 00000-0 49841-3 0 9990 2 52766 97.5828 297.9737 0010471 120.8974 239.3298 15.32156488114943 SNUGLITE 2 1 52899U 22065F 24172.54835910 .00001388 00000-0 29312-3 0 9999 2 52899 98.1201 313.6281 0008656 137.0305 223.1574 14.60852855104759 IO-117 1 53106U 22080B 24166.32229891 -.00000003 00000-0 00000-0 0 9996 2 53106 70.1325 193.5164 0007597 107.9394 252.2094 6.42557698 45088 SelfieSat 1 53951U 22057BC 24172.36147103 .00073645 00000-0 10349-2 0 9994 2 53951 97.5677 302.5242 0005336 159.3649 200.7821 15.56440567115288 FO-118 1 54684U 22167C 24172.60051694 .00022276 00000-0 75792-3 0 9994 2 54684 97.6052 317.5084 0010923 135.4927 224.7193 15.30388761 84824 SSS-2B 1 56184U 23054G 24172.91872222 .00027588 00000-0 66239-3 0 9996 2 56184 97.3696 70.9415 0008703 143.1174 217.0673 15.41289554 66711 CIRBE 1 56188U 23054L 24172.25787269 .00053301 00000-0 84411-3 0 9997 2 56188 97.3629 72.2428 0007733 133.0942 227.0960 15.53225988 66762 INSPIRE-Sat 7 1 56211U 23054AK 24172.56511829 .00066243 00000-0 96985-3 0 9993 2 56211 97.3632 73.8327 0011132 117.9199 242.3184 15.55297723 66880 RoseyCubesat 1 1 56212U 23054AL 24172.55579032 .00088925 00000-0 10844-2 0 9993 2 56212 97.3650 74.6440 0011566 118.3130 241.9295 15.60110543 66931 SO-120 1 56992U 23084BU 24172.59258973 .00022302 00000-0 80650-3 0 9993 2 56992 97.5322 291.9879 0011187 16.3970 343.7629 15.28394185 56708 MRC-100 1 56993U 23084BV 24172.29717712 .00025494 00000-0 86363-3 0 9994 2 56993 97.5324 292.0991 0010376 14.8827 345.2716 15.30506103 56691 UmKA 1 (RS40S) 1 57172U 23091G 24172.58417197 .00004482 00000-0 29741-3 0 9999 2 57172 97.6112 224.5951 0018395 109.7800 250.5413 15.07616620 54002 CubeBel-2 (EU11S) 1 57175U 23091K 24172.59912551 .00006261 00000-0 40628-3 0 9991 2 57175 97.6119 224.5635 0016932 120.5535 239.7367 15.08306866 54008 VERONIKA 1 58261U 23174F 24172.54955493 .00015283 00000-0 68496-3 0 9994 2 58261 97.4612 247.3019 0011815 224.4706 135.5582 15.21264311 34226 KAFASAT 1 58317U 23174BP 24172.55771180 .00019421 00000-0 78885-3 0 9997 2 58317 97.4557 247.8950 0011504 201.1018 158.9747 15.24555914 34270 ENSO 1 58470U 23185J 24172.55079978 .00012686 00000-0 53537-3 0 9998 2 58470 97.4270 239.2359 0011246 263.0346 96.9612 15.23363956 30656 EIRSAT-1 1 58472U 23185L 24172.58836287 .00014080 00000-0 58357-3 0 9992 2 58472 97.4264 239.3183 0010832 263.0271 96.9734 15.23953721 30665 SO-121 1 58567U 23174CY 24172.45810153 .00037787 00000-0 12915-2 0 9993 2 58567 97.4540 248.1967 0013233 209.2380 150.8121 15.30100379 34289 SONATE-2 1 59112U 24043Q 24172.33214035 .00007729 00000-0 37523-3 0 9996 2 59112 97.4791 296.1379 0013661 283.2798 76.6912 15.18668684 16281 KASHIWA 1 59508U 98067WH 24172.56107131 .00136309 00000-0 11565-2 0 9999 2 59508 51.6314 294.1566 0011361 319.1760 40.8384 15.68633947 11024 /EX